Wind_Speed
87 80 94 106 103 97 92 85 83 78 74 74 72 70 72 80 86 91 89 97 102 99 96 93 91 93 89 87 86 85 82 79 77 75 76 75 73 70 67 64 65 62 59 56 54
93 89 84 95 106 102 97 89 88 83 80 76 75 72 71 71 79 87 93 94 98 100 104 105 103 99 98 94 93 90 88 86 86 83 81 81 76 74 72 72 70 68 67 65 64
87 90 88 84 92 104 99 97 93 92 86 79 73 75 75 70 70 76 81 91 94 97 99 103 105 104 103 101 98 97 94 92 92 89 86 86 85 81 77 76 78 73 70 66 68
82 84 90 84 85 89 97 98 99 94 94 84 77 80 80 77 73 72 73 80 87 97 100 99 99 99 100 101 100 102 102 100 96 95 92 90 91 89 84 81 81 80 76 74 73
74 80 85 88 86 88 85 95 99 95 91 86 82 81 76 78 73 75 77 75 81 87 92 95 98 98 100 103 102 104 104 105 103 102 98 95 91 95 91 87 89 89 85 81 77
55 64 72 87 87 87 85 87 93 93 91 87 87 85 87 85 82 78 81 84 83 85 82 84 88 93 95 97 100 102 105 105 105 103 100 98 98 97 99 98 96 94 92 89 81
39 43 52 87 94 95 92 85 80 81 88 88 89 89 88 87 84 85 86 86 86 82 80 80 80 85 89 90 92 95 99 103 105 107 103 100 99 103 106 106 102 97 94 94 92
22 28 40 59 75 100 96 87 83 76 79 83 89 86 83 85 85 86 88 89 88 84 84 83 81 79 78 83 88 89 91 96 101 105 107 106 101 105 108 111 109 104 99 96 92
12 26 42 50 60 82 90 84 83 80 76 80 84 89 84 84 88 86 85 84 84 82 83 80 79 77 75 76 78 81 82 88 97 99 98 101 96 102 107 108 108 109 105 97 94
3 15 27 40 50 62 83 86 84 78 69 69 76 81 85 81 77 75 70 75 75 74 70 70 71 73 71 70 70 75 79 82 87 91 89 91 86 96 99 101 99 99 96 87 81
23 9 15 29 42 55 69 79 80 61 60 61 63 61 61 64 66 66 64 62 60 58 61 62 64 61 59 62 65 68 68 70 71 75 75 78 74 80 86 89 87 89 91 87 81
36 24 12 15 33 40 42 42 45 50 45 48 49 43 48 50 47 42 44 45 48 51 54 54 53 51 52 53 54 56 58 58 56 58 59 63 63 67 71 76 77 79 82 82 81
44 32 24 19 21 25 25 28 30 32 38 39 35 34 32 31 32 36 39 44 42 39 41 43 44 44 42 44 45 47 46 48 50 50 50 52 55 56 61 65 65 67 69 70 73
61 45 34 26 28 27 22 21 23 25 23 25 26 25 27 32 36 40 38 36 33 30 29 31 32 32 34 34 34 35 35 37 38 39 39 42 49 52 56 59 60 60 62 64 67
62 58 50 37 28 18 16 16 17 21 17 20 20 22 24 26 23 22 21 19 18 17 17 15 14 16 18 20 23 26 27 26 26 28 30 32 36 41 47 50 51 50 52 58 62
64 54 48 44 40 32 24 18 14 13 13 13 14 14 13 12 12 9 7 7 7 8 9 9 10 11 13 15 18 20 22 23 24 26 28 29 32 32 36 39 41 42 43 46 51
77 60 50 44 39 35 32 28 26 23 22 19 18 18 16 12 10 7 5 4 3 1 1 6 7 5 4 6 4 6 7 8 13 16 19 23 27 30 32 34 36 39 40 42 42
93 81 63 51 44 39 36 31 28 24 19 18 17 16 15 17 17 14 14 19 17 19 22 15 17 15 13 13 12 13 13 13 11 11 12 12 15 17 22 25 26 28 32 36 40
87 87 83 65 52 44 44 41 39 38 35 35 33 35 34 30 28 30 32 30 29 26 25 24 23 20 18 18 18 20 20 21 19 15 11 9 9 9 8 10 13 17 22 28 33
81 84 84 80 79 60 49 46 47 46 47 48 48 45 40 39 39 38 36 33 30 29 28 28 23 23 22 21 22 22 22 21 24 22 19 19 19 17 17 11 7 7 11 19 26
75 77 79 80 77 77 72 63 56 52 52 52 50 48 50 48 46 43 40 37 34 34 35 33 29 29 27 27 25 24 23 23 24 23 24 27 23 23 20 15 10 6 2 8 20
72 69 70 74 76 78 78 75 69 60 58 59 59 57 55 55 56 54 51 48 45 45 48 48 43 39 37 34 31 30 30 26 26 25 26 26 23 24 19 21 13 13 6 7 13
80 68 65 63 66 68 69 68 66 64 59 53 51 51 53 54 55 53 51 51 52 53 54 52 52 52 50 47 42 38 36 33 32 30 27 27 25 28 28 22 25 15 16 7 14
82 79 65 59 55 55 57 58 57 58 57 55 52 48 48 49 50 49 47 48 47 49 49 50 50 49 46 44 47 49 47 45 41 35 34 33 30 29 27 26 22 18 15 7 13
78 85 70 69 52 49 46 46 46 48 48 47 46 45 43 42 41 42 44 43 42 43 44 44 43 42 42 42 43 45 46 47 47 45 43 40 36 36 34 32 30 24 15 12 3
91 80 83 78 69 54 44 43 39 38 37 38 38 37 37 36 36 38 38 38 37 38 38 38 38 39 39 38 38 39 40 40 39 39 42 43 42 41 39 33 27 26 24 24 13
81 87 81 78 76 66 58 43 36 33 31 31 30 28 29 30 30 30 31 32 32 32 34 34 34 34 34 34 33 33 34 35 36 37 37 37 38 39 37 34 31 30 27 24 23
Wind_Direction
253 247 239 232 232 231 233 236 236 241 241 242 242 241 241 242 241 240 242 242 243 244 243 246 246 245 246 246 245 245 246 247 247 246 246 245 246 245 244 248 249 245 241 245 245
248 246 238 233 229 232 232 229 234 236 238 241 242 243 242 244 243 243 242 243 245 244 246 246 249 248 248 246 247 246 246 247 246 246 246 246 247 245 246 246 247 246 243 243 245
245 246 236 235 229 229 231 236 229 233 235 234 241 244 243 245 250 248 246 246 245 245 245 247 248 247 246 248 249 248 248 247 247 245 244 246 247 247 246 246 246 244 246 246 244
240 244 239 232 230 226 229 229 234 235 231 234 239 242 245 243 248 250 250 249 248 248 248 248 248 249 248 248 248 248 249 248 248 246 244 243 245 247 244 242 242 245 246 245 241
237 239 238 231 228 224 224 226 227 232 234 232 235 240 244 242 243 250 249 254 253 250 249 251 252 253 251 248 249 249 249 248 245 244 244 243 244 246 245 244 243 244 244 242 237
235 238 235 232 229 227 227 227 227 230 231 234 234 232 242 239 241 244 249 249 251 253 252 252 251 251 252 251 251 251 250 249 248 245 244 243 243 246 246 246 245 247 244 244 243
234 231 227 227 225 227 230 226 224 227 228 230 235 237 237 238 244 246 245 250 254 256 256 255 255 255 254 253 255 255 252 250 249 247 247 246 243 246 246 247 246 246 246 246 246
237 216 210 215 219 220 225 223 223 225 229 230 233 237 241 242 245 247 250 253 255 257 260 260 261 261 257 255 254 253 251 251 251 250 249 248 244 246 246 247 249 249 248 246 246
196 193 200 205 207 214 219 219 223 229 234 232 233 236 240 243 247 251 255 255 259 260 261 263 262 262 259 257 254 254 251 250 251 250 248 247 246 247 249 250 249 251 252 251 251
130 202 204 202 197 205 213 216 224 231 233 233 235 238 242 246 251 257 258 260 262 261 260 260 261 260 259 257 255 253 250 249 251 253 253 253 251 250 251 252 253 254 256 256 254
52 82 169 185 185 195 206 215 223 228 232 236 240 244 247 248 251 254 257 257 259 261 263 263 260 258 257 255 255 253 254 257 257 257 258 258 257 255 255 255 254 256 257 257 257
61 66 116 153 175 183 190 199 210 223 228 237 243 249 246 247 250 256 262 265 264 261 260 260 257 254 253 255 257 258 257 256 259 260 260 258 256 253 252 252 253 252 253 254 255
56 70 87 96 137 166 175 183 195 209 224 237 242 243 247 250 255 257 259 259 257 256 252 249 250 255 258 258 260 262 263 262 262 263 262 259 254 252 252 252 249 249 249 248 247
53 63 73 89 119 139 153 178 195 209 216 221 224 235 250 255 253 257 259 261 254 251 254 258 260 261 265 266 265 265 264 264 264 266 265 261 256 251 249 248 247 245 245 245 243
51 53 56 68 80 101 126 154 178 188 192 213 230 246 251 253 250 246 242 248 251 253 253 262 264 266 273 274 277 277 276 275 274 270 266 261 260 255 254 254 254 252 248 246 246
47 53 55 57 63 72 84 100 121 139 155 171 182 187 186 180 183 205 207 224 242 253 268 269 277 277 272 272 274 280 283 286 284 280 274 270 266 262 255 252 251 249 243 242 244
46 48 51 55 62 66 69 78 87 91 95 112 121 132 137 141 153 147 141 135 141 271 198 220 185 170 223 215 267 321 316 299 280 277 281 275 272 268 266 260 256 252 247 241 238
47 45 47 58 64 72 75 75 82 89 95 100 113 117 125 115 98 87 116 112 125 110 103 100 88 74 69 57 53 28 25 15 2 352 325 307 296 283 275 270 266 258 249 242 234
45 50 51 49 52 63 75 81 85 88 89 87 89 84 80 86 96 89 77 73 71 68 65 60 61 61 55 55 51 41 37 26 23 17 16 3 349 340 314 288 274 260 249 237 231
40 43 48 51 50 53 63 72 79 82 83 82 83 83 83 79 76 72 70 70 71 69 66 65 63 64 65 66 59 47 45 45 36 31 30 36 28 23 24 13 331 285 252 233 223
38 38 42 44 49 51 51 55 62 70 75 80 82 80 77 75 76 75 75 75 77 76 76 74 70 76 76 72 70 67 60 57 52 46 47 48 35 38 32 30 32 24 276 219 206
33 38 40 38 41 45 50 51 51 56 64 70 75 79 80 79 79 78 79 80 80 85 87 85 79 75 73 72 71 70 69 61 65 62 55 55 49 50 35 38 31 49 78 167 196
29 30 34 41 39 42 46 49 54 54 55 62 71 75 78 80 80 79 79 81 83 82 83 83 80 77 73 70 68 70 71 73 67 68 67 67 60 57 53 49 48 53 17 83 150
29 31 29 32 38 42 42 45 47 50 55 56 57 64 69 72 74 77 78 79 81 81 80 79 75 73 72 71 67 65 65 66 68 72 74 72 67 62 61 55 47 35 22 124 160
33 31 31 29 31 32 41 42 43 46 48 52 54 56 57 60 62 66 67 68 71 72 71 72 73 73 70 66 63 60 61 60 60 63 67 73 72 68 65 58 59 61 41 60 125
26 26 26 25 29 29 30 30 38 37 40 44 44 46 48 51 54 53 54 56 57 58 59 59 61 61 61 58 54 54 54 53 59 60 59 61 63 68 68 66 62 58 54 54 44
18 22 25 24 27 28 27 25 26 26 32 31 33 38 39 39 40 43 44 44 44 43 41 42 45 47 49 52 55 50 43 44 42 41 44 45 50 53 54 55 56 56 53 47 44
Height
10441 10457 10473 10489 10504 10519 10536 10549 10560 10572 10582 10587 10595 10602 10608 10616 10623 10632 10638 10646 10653 10661 10669 10676 10682 10688 10695 10701 10706 10711 10721 10726 10729 10732 10734 10736 10743 10751 10757 10760 10763 10770 10774 10776 10779
10412 10429 10446 10461 10480 10496 10513 10529 10543 10555 10563 10575 10583 10591 10596 10602 10609 10616 10623 10630 10636 10643 10651 10657 10664 10671 10680 10684 10690 10696 10703 10708 10713 10719 10722 10723 10728 10735 10743 10748 10747 10754 10759 10765 10766
10385 10398 10421 10440 10455 10476 10495 10512 10523 10536 10546 10562 10573 10578 10585 10592 10597 10602 10610 10615 10620 10625 10631 10639 10646 10653 10661 10668 10673 10681 10689 10689 10696 10702 10708 10708 10711 10721 10729 10735 10730 10737 10744 10752 10757
10365 10373 10398 10422 10439 10458 10477 10496 10507 10519 10527 10552 10561 10564 10573 10580 10585 10592 10597 10600 10605 10610 10617 10624 10631 10637 10641 10649 10654 10660 10665 10672 10679 10686 10691 10695 10696 10704 10709 10716 10715 10721 10725 10732 10739
10351 10358 10379 10405 10423 10443 10460 10478 10490 10503 10521 10538 10546 10551 10562 10570 10576 10581 10584 10588 10591 10594 10600 10608 10617 10621 10623 10629 10636 10639 10643 10650 10654 10661 10671 10681 10683 10679 10692 10698 10697 10699 10704 10708 10718
10340 10347 10367 10391 10411 10428 10447 10463 10477 10494 10510 10524 10532 10536 10550 10556 10561 10566 10572 10573 10577 10582 10589 10595 10599 10601 10605 10610 10616 10620 10621 10627 10632 10639 10647 10659 10666 10670 10668 10669 10680 10683 10690 10696 10702
10331 10344 10363 10383 10403 10421 10437 10455 10471 10482 10494 10508 10519 10528 10536 10543 10549 10554 10558 10561 10566 10571 10575 10579 10584 10588 10591 10595 10597 10600 10602 10605 10610 10619 10625 10637 10653 10653 10649 10645 10654 10658 10668 10676 10685
10334 10344 10357 10369 10388 10408 10427 10448 10461 10472 10484 10497 10506 10518 10526 10532 10538 10543 10547 10551 10556 10560 10564 10567 10569 10572 10574 10575 10577 10578 10584 10585 10587 10594 10601 10611 10635 10625 10621 10616 10626 10637 10650 10660 10669
10335 10342 10348 10360 10378 10398 10418 10439 10454 10464 10476 10485 10497 10508 10516 10523 10528 10532 10537 10543 10546 10548 10550 10552 10554 10554 10556 10556 10559 10561 10567 10567 10565 10568 10577 10582 10610 10607 10599 10598 10620 10622 10631 10646 10657
10341 10346 10354 10361 10375 10394 10413 10430 10448 10459 10469 10479 10490 10499 10507 10511 10517 10522 10526 10529 10531 10532 10534 10536 10538 10538 10538 10540 10542 10543 10545 10548 10549 10551 10565 10571 10594 10588 10582 10587 10601 10607 10614 10624 10635
10349 10355 10361 10369 10379 10393 10409 10429 10442 10458 10468 10475 10483 10490 10497 10504 10508 10511 10514 10517 10519 10521 10522 10523 10521 10522 10524 10525 10527 10530 10538 10541 10544 10545 10555 10557 10572 10571 10569 10570 10582 10589 10593 10604 10615
10365 10369 10377 10385 10395 10403 10418 10435 10447 10456 10463 10472 10480 10488 10493 10496 10501 10504 10508 10510 10509 10510 10509 10508 10508 10510 10513 10516 10521 10524 10526 10526 10530 10533 10540 10540 10545 10547 10548 10551 10562 10569 10574 10585 10595
10385 10389 10393 10402 10409 10418 10427 10437 10446 10455 10463 10471 10479 10485 10489 10493 10495 10498 10500 10498 10498 10500 10498 10496 10498 10502 10507 10509 10511 10512 10517 10518 10518 10520 10524 10526 10527 10530 10532 10535 10543 10549 10555 10562 10568
10411 10411 10411 10413 10418 10426 10434 10440 10447 10455 10464 10472 10476 10480 10483 10485 10488 10489 10490 10491 10491 10491 10493 10495 10497 10500 10501 10503 10504 10506 10507 10508 10510 10511 10512 10513 10511 10513 10513 10517 10524 10532 10539 10542 10548
10430 10429 10429 10431 10432 10435 10439 10443 10448 10456 10462 10468 10471 10475 10478 10482 10485 10485 10487 10488 10488 10490 10491 10493 10494 10496 10497 10497 10497 10497 10499 10501 10502 10501 10500 10501 10501 10502 10506 10510 10515 10522 10526 10530 10534
10452 10449 10448 10448 10446 10447 10449 10451 10454 10457 10460 10465 10470 10476 10478 10481 10483 10484 10486 10486 10486 10486 10487 10489 10490 10491 10492 10492 10491 10493 10494 10495 10494 10492 10493 10491 10491 10495 10496 10499 10502 10507 10512 10516 10521
10477 10471 10465 10461 10459 10460 10461 10461 10462 10465 10467 10471 10474 10477 10479 10482 10483 10484 10485 10485 10486 10486 10487 10489 10490 10489 10488 10488 10487 10488 10489 10489 10488 10486 10485 10484 10484 10484 10487 10489 10491 10493 10498 10503 10509
10499 10492 10490 10485 10480 10474 10471 10469 10470 10470 10474 10477 10479 10481 10484 10486 10486 10488 10489 10487 10487 10487 10488 10488 10488 10487 10485 10486 10485 10485 10485 10485 10484 10484 10482 10479 10478 10478 10477 10479 10482 10484 10487 10491 10498
10523 10517 10512 10506 10500 10494 10488 10485 10484 10483 10485 10488 10489 10488 10488 10492 10494 10490 10488 10487 10486 10487 10488 10487 10487 10486 10486 10486 10487 10484 10484 10484 10484 10484 10480 10477 10476 10476 10475 10475 10476 10478 10480 10483 10488
10537 10533 10529 10524 10519 10516 10506 10499 10495 10494 10493 10492 10493 10496 10498 10498 10495 10494 10494 10493 10493 10493 10493 10493 10492 10491 10490 10490 10489 10487 10487 10486 10486 10485 10482 10478 10477 10475 10475 10474 10473 10476 10477 10480 10484
10555 10548 10542 10538 10536 10532 10519 10516 10512 10508 10504 10505 10507 10506 10503 10503 10504 10504 10503 10503 10502 10500 10500 10500 10500 10499 10497 10495 10494 10493 10491 10490 10490 10488 10486 10481 10481 10481 10479 10478 10479 10481 10480 10481 10484
10575 10568 10559 10552 10548 10540 10534 10532 10532 10529 10524 10520 10518 10518 10518 10516 10516 10515 10516 10516 10513 10511 10510 10509 10509 10506 10505 10504 10501 10500 10497 10494 10493 10492 10489 10487 10487 10484 10482 10483 10482 10483 10484 10484 10486
10593 10584 10580 10573 10566 10560 10555 10555 10554 10552 10550 10546 10541 10537 10534 10532 10530 10529 10529 10528 10526 10523 10520 10519 10518 10517 10516 10514 10510 10507 10503 10500 10497 10495 10495 10491 10490 10489 10488 10488 10487 10490 10490 10490 10493
10615 10606 10597 10590 10586 10581 10575 10572 10570 10568 10565 10562 10561 10559 10555 10551 10548 10546 10545 10541 10539 10536 10533 10531 10528 10526 10527 10525 10522 10516 10512 10508 10505 10502 10500 10497 10496 10495 10494 10494 10496 10499 10498 10497 10500
10629 10624 10617 10608 10600 10597 10592 10588 10585 10581 10578 10576 10574 10572 10570 10568 10566 10562 10558 10556 10554 10550 10547 10544 10542 10540 10537 10533 10530 10526 10522 10517 10514 10512 10509 10504 10503 10500 10500 10499 10501 10504 10505 10506 10507
10641 10635 10628 10622 10615 10609 10603 10599 10595 10593 10590 10587 10585 10582 10580 10576 10574 10571 10568 10565 10563 10560 10557 10555 10552 10549 10545 10541 10537 10533 10530 10527 10525 10522 10518 10514 10512 10508 10506 10508 10509 10510 10511 10511 10512
10652 10645 10639 10631 10625 10620 10615 10610 10604 10601 10598 10595 10592 10589 10586 10584 10581 10578 10575 10573 10570 10566 10562 10560 10557 10555 10552 10549 10545 10542 10538 10534 10529 10525 10523 10520 10518 10515 10515 10515 10515 10515 10514 10513 10514